Regional Weather Roundup
Issued by NWS

Home | Current Version | Previous Version | Graphics & Text | Print | Product List | Glossary On
Versions: 1 2 3 4 5 6 7 8 9 10 11 12 13 14 15 16 17 18 19 20 21 22 23 24 25 26 27 28 29 30 31 32 33 34 35 36 37 38 39 40 41 42 43 44 45 46 47 48 49 50
000
ASUS43 KFSD 220202
RWRSD

WEATHER ROUNDUP FOR SOUTH DAKOTA
NATIONAL WEATHER SERVICE SIOUX FALLS SD
800 PM CST SUN JAN 21 2018

NOTE: "FAIR" INDICATES FEW OR NO CLOUDS BELOW 12,000 FEET WITH NO
SIGNIFICANT WEATHER AND/OR OBSTRUCTIONS TO VISIBILITY.


SDZ001>005-009-010-012>017-220300-
NORTHWEST AND NORTH CENTRAL SOUTH DAKOTA

CITY           SKY/WX    TMP DP  RH WIND       PRES   REMARKS
BUFFALO          N/A     24  18  77 W8        29.96R WCI  15
FAITH            N/A     28  25  88 NW8       30.01S WCI  20
MOBRIDGE       MOCLDY    25  22  88 N5        30.00F WCI  19
$$

SDZ012>016-024>037-041>051-057-063-072>074-220300-
SOUTHWEST AND SOUTH CENTRAL SOUTH DAKOTA

CITY           SKY/WX    TMP DP  RH WIND       PRES   REMARKS
RAPID CTY ARPT CLOUDY    31  24  75 N13       30.01R WCI  21
PIERRE         CLOUDY    30  27  88 N10       30.01S WCI  21
CUSTER         CLOUDY    24  16  71 N7        29.94R WCI  16
ELLSWORTH AFB  CLOUDY    31  25  76 N16       30.00S WCI  20
PHILIP         CLOUDY    30  28  92 CALM      30.02S
PINE RIDGE     CLOUDY    27  26  96 NW9       29.98F WCI  18
SPEARFISH        N/A     27  21  80 W6        30.02S WCI  20
WINNER         LGT SNOW  32  30  92 N20       29.96R FOG     WCI  20
$$

SDZ004>011-016>023-039-040-220300-
NORTHEAST SOUTH DAKOTA

CITY           SKY/WX    TMP DP  RH WIND       PRES   REMARKS
ABERDEEN       PTCLDY    27  25  92 N10       30.05R WCI  17
WATERTOWN      CLOUDY    29  26  89 N12       29.97R WCI  19
BROOKINGS      CLOUDY    32  26  78 MISG        N/A
SISSETON         N/A     27  24  89 N14       30.04R WCI  16
$$

SDZ017-020-022-023-036>040-048>070-220300-
SOUTHEAST SOUTH DAKOTA

CITY           SKY/WX    TMP DP  RH WIND       PRES   REMARKS
SIOUX FALLS    CLOUDY    35  29  78 NE20      29.89S WCI  24
HURON          CLOUDY    30  28  92 N18       29.97S WCI  18
CHAMBERLAIN    FLURRIES  32  32  99 NW16      29.97R WCI  21
MITCHELL       CLOUDY    33  31  92 N14       29.95R WCI  23
YANKTON        CLOUDY    37  29  72 N22       29.84F
$$

ABBREVIATIONS USED IN REMARKS
   TC - TEMPERATURE IN CELSIUS
  WCI - WIND CHILL INDEX
   HX - HEAT INDEX
  VSB - VISIBILITY





USA.gov is the U.S. government's official web portal to all federal, state and local government web resources and services.